EW2549 Weather Reports


time (UTC)temp
C
wind
direction
speed
KPH
gust
KPH
rain 1hr
cm
rain 24hr
cm
rain mn
cm
humidity
%
barometer
mb
20260504024524 16 200 0.0 0.0 0.00 0.00 0.00 29 1003.2
20260504023024 16 198 0.0 0.0 0.00 0.00 0.00 30 1003.3
20260504021532 16 244 3.2 11.3 0.00 0.00 0.00 29 1003.3
20260504020026 16 182 0.0 0.0 0.00 0.00 0.00 29 1003.1
20260504014523 17 31 0.0 0.0 0.00 0.00 0.00 27 1002.9
20260504013032 18 31 0.0 0.0 0.00 0.00 0.00 27 1002.8
20260504011522 18 31 0.0 0.0 0.00 0.00 0.00 27 1002.8
20260504010021 18 350 0.0 0.0 0.00 0.00 0.00 26 1002.8
20260504004521 18 37 0.0 0.0 0.00 0.00 0.00 25 1002.9
20260504003020 18 42 0.0 0.0 0.00 0.00 0.00 26 1002.8
20260504001520 18 360 0.0 0.0 0.00 0.00 0.00 25 1003.0
20260504000020 18 348 0.0 0.0 0.00 0.00 0.00 26 1003.0
20260503234519 19 348 0.0 0.0 0.00 0.00 0.00 25 1003.3
20260503233018 20 23 0.0 0.0 0.00 0.00 0.00 24 1003.0
20260503231518 20 350 0.0 17.7 0.00 0.00 0.00 23 1002.7
20260503230017 20 277 0.0 0.0 0.00 0.00 0.00 20 1002.9
20260503224515 20 236 0.0 0.0 0.00 0.00 0.00 19 1002.9
20260503223014 20 235 1.6 17.7 0.00 0.00 0.00 19 1002.9
20260503221522 20 240 8.0 20.9 0.00 0.00 0.00 19 1003.0
20260503220012 20 30 11.3 29.0 0.00 0.00 0.00 19 1003.2
20260503214513 21 269 16.1 35.4 0.00 0.00 0.00 18 1003.7
20260503213025 21 254 16.1 24.1 0.00 0.00 0.00 17 1003.8
20260503211516 21 342 1.6 22.5 0.00 0.00 0.00 16 1004.0
20260503210011 22 321 6.4 20.9 0.00 0.00 0.00 14 1003.9
20260503204507 23 178 0.0 6.4 0.00 0.00 0.00 13 1004.0
20260503201512 23 184 1.6 8.0 0.00 0.00 0.00 13 1004.3
20260503200004 23 94 1.6 22.5 0.00 0.00 0.00 15 1004.6
20260503194503 22 110 0.0 0.0 0.00 0.00 0.00 16 1004.8
20260503193121 21 190 0.0 6.4 0.00 0.00 0.00 15 1005.0
20260503191602 21 82 0.0 22.5 0.00 0.00 0.00 15 1005.1
20260503184558 23 264 0.0 14.5 0.00 0.00 0.00 14 1005.5
20260503183101 23 355 0.0 14.5 0.00 0.00 0.00 14 1005.9
20260503181619 23 252 1.6 12.9 0.00 0.00 0.00 13 1006.1
20260503180104 23 229 8.0 19.3 0.00 0.00 0.00 14 1006.4
20260503174553 22 215 4.8 19.3 0.00 0.00 0.00 15 1006.8
20260503173053 20 242 8.0 20.9 0.00 0.00 0.00 17 1007.2
20260503171539 20 5 3.2 12.9 0.00 0.00 0.00 19 1007.5
20260503081530 11 245 0.0 1.6 0.00 0.00 0.00 32 1010.3
20260503071525 7 134 0.0 0.0 0.00 0.00 0.00 31 1010.9
20260503070117 7 126 0.0 0.0 0.00 0.00 0.00 31 1011.0
20260503054513 7 126 0.0 0.0 0.00 0.00 0.00 28 1011.3
20260503053010 8 126 0.0 0.0 0.00 0.00 0.00 28 1011.2
20260503051509 8 126 0.0 0.0 0.00 0.00 0.00 28 1011.2
20260503050008 8 126 0.0 0.0 0.00 0.00 0.00 25 1011.2
20260503044508 8 125 0.0 0.0 0.00 0.00 0.00 26 1011.3
20260503043008 9 126 0.0 0.0 0.00 0.00 0.00 26 1011.3
20260503041507 10 126 0.0 0.0 0.00 0.00 0.00 26 1011.3
20260503040011 10 126 0.0 0.0 0.00 0.00 0.00 24 1011.3
20260503034508 11 125 0.0 0.0 0.00 0.00 0.00 24 1011.3
20260503033011 11 77 0.0 0.0 0.00 0.00 0.00 20 1011.2
20260503031505 12 77 0.0 0.0 0.00 0.00 0.00 19 1011.1
20260503030005 13 77 0.0 0.0 0.00 0.00 0.00 20 1011.1